BMCB-14 Weather Reports


Display with metric or nautical units.
time (UTC)temp
F
wind
direction
speed
MPH
gust
MPH
rain 1hr
in
rain 24hr
in
rain mn
in
humidity
%
barometer
mb
20260503021043 57 0 0.0 0.0 0.00 0.21 0.00 89 1014.3
20260503014045 57 0 0.0 0.0 0.00 0.21 0.00 89 1014.6
20260503013046 57 0 0.0 0.0 0.00 0.21 0.00 88 1014.5
20260503012044 57 0 0.0 0.0 0.00 0.21 0.00 87 1014.6
20260503011046 58 0 0.0 0.0 0.00 0.21 0.00 86 1014.7
20260503010047 57 0 0.0 0.0 0.00 0.21 0.00 87 1014.9
20260503005046 56 0 0.0 0.0 0.00 0.21 0.00 89 1015.0
20260503004045 57 0 0.0 0.0 0.00 0.21 0.00 89 1015.0
20260503003047 56 0 0.0 0.0 0.00 0.21 0.00 91 1015.1
20260503002047 56 0 0.0 0.0 0.00 0.21 0.00 93 1015.2
20260503001046 56 0 0.0 0.0 0.00 0.21 0.00 92 1015.2
20260502235049 57 0 0.0 0.0 0.00 0.21 0.00 91 1015.3
20260502234046 57 0 0.0 0.0 0.00 0.21 0.00 91 1015.3
20260502233049 57 0 0.0 0.0 0.00 0.21 0.00 90 1015.3
20260502232048 58 0 0.0 0.0 0.00 0.21 0.00 89 1015.3
20260502225046 59 0 0.0 0.0 0.00 0.21 0.00 87 1015.4
20260502224045 59 0 0.0 0.0 0.00 0.21 0.00 86 1015.4
20260502221045 57 0 0.0 0.0 0.00 0.21 0.00 93 1015.7
20260502215045 58 0 0.0 0.0 0.00 0.21 0.21 89 1015.7
20260502214047 59 0 0.0 0.0 0.00 0.21 0.21 85 1015.6
20260502213047 58 0 0.0 0.0 0.00 0.21 0.21 89 1015.7
20260502212050 57 0 0.0 0.0 0.00 0.21 0.21 89 1015.8
20260502211046 58 0 0.0 0.0 0.00 0.21 0.21 86 1015.8
20260502210050 57 0 0.0 0.0 0.00 0.21 0.21 89 1015.9
20260502205048 57 0 0.0 0.0 0.00 0.21 0.21 90 1015.9
20260502204052 56 0 0.0 0.0 0.00 0.21 0.21 94 1016.0
20260502203050 56 0 0.0 0.0 0.00 0.21 0.21 96 1016.1
20260502200051 57 0 0.0 0.0 0.00 0.21 0.21 93 1016.0
20260502195047 57 0 0.0 0.0 0.00 0.21 0.21 94 1016.0
20260502193050 57 0 0.0 0.0 0.00 0.21 0.21 94 1016.1
20260502192049 58 0 0.0 0.0 0.00 0.21 0.21 92 1016.3
20260502191050 58 0 0.0 0.0 0.00 0.21 0.21 92 1016.2
20260502190047 59 0 0.0 0.0 0.00 0.21 0.21 90 1016.2
20260502185047 60 0 0.0 0.0 0.00 0.21 0.21 86 1016.2
20260502184048 60 0 0.0 0.0 0.00 0.21 0.21 85 1016.1
20260502183050 60 0 0.0 0.0 0.06 0.21 0.21 89 1016.1
20260502182045 61 0 0.0 0.0 0.19 0.21 0.21 87 1016.0
20260502163048 73 0 0.0 0.0 0.00 0.01 0.01 52 1015.2
20260502162046 73 0 0.0 0.0 0.00 0.01 0.01 53 1015.4
20260502161051 73 0 0.0 0.0 0.00 0.01 0.01 53 1015.7
20260502152048 73 0 0.0 0.0 0.00 0.01 0.01 50 1016.1
20260502151050 74 0 0.0 0.0 0.00 0.01 0.01 52 1016.2
20260502123048 71 0 0.0 0.0 0.00 0.01 0.01 60 1018.8
20260502121044 70 0 0.0 0.0 0.00 0.01 0.01 61 1019.1
20260502115044 69 0 0.0 0.0 0.00 0.01 0.01 63 1019.4
20260502114046 70 0 0.0 0.0 0.00 0.01 0.01 61 1019.5
20260502113047 70 0 0.0 0.0 0.00 0.01 0.01 62 1019.5
20260502112047 69 0 0.0 0.0 0.00 0.01 0.01 64 1019.7
20260502111048 69 0 0.0 0.0 0.00 0.01 0.01 65 1019.8
20260502105048 70 0 0.0 0.0 0.00 0.01 0.01 64 1019.9
20260502104044 70 0 0.0 0.0 0.00 0.01 0.01 65 1020.0
20260502103045 69 0 0.0 0.0 0.00 0.01 0.01 66 1020.1
20260502101049 68 0 0.0 0.0 0.00 0.01 0.01 66 1020.3
20260502071046 57 0 0.0 0.0 0.00 0.01 0.01 76 1021.9
20260502064046 56 0 0.0 0.0 0.00 0.01 0.01 81 1022.0
20260502063046 56 0 0.0 0.0 0.00 0.01 0.01 74 1022.0
20260502062044 55 0 0.0 0.0 0.00 0.01 0.01 75 1022.0
20260502061047 55 0 0.0 0.0 0.00 0.01 0.01 74 1022.0
20260502060047 55 0 0.0 0.0 0.00 0.01 0.01 75 1022.2
20260502055046 54 0 0.0 0.0 0.00 0.01 0.01 77 1022.3
20260502053046 53 0 0.0 0.0 0.00 0.01 0.01 79 1022.1
20260502052043 53 0 0.0 0.0 0.00 0.01 0.01 80 1022.1
20260502051042 53 0 0.0 0.0 0.00 0.01 0.01 79 1022.1
20260502045046 53 0 0.0 0.0 0.00 0.01 0.01 80 1022.1
20260502044046 53 0 0.0 0.0 0.01 0.01 0.01 78 1022.1
20260502042043 51 0 0.0 0.0 0.01 0.01 0.01 81 1022.1
20260502035047 54 0 0.0 0.0 0.01 0.01 0.01 67 1021.9
20260502034044 55 0 0.0 0.0 0.01 0.01 0.01 58 1021.9
20260502033045 56 0 0.0 0.0 0.00 0.00 0.00 53 1022.2
20260502032046 55 0 0.0 0.0 0.00 0.00 0.00 53 1022.3
20260502030045 54 0 0.0 0.0 0.00 0.00 0.00 55 1022.6
20260502024042 54 0 0.0 0.0 0.00 0.00 0.00 55 1022.7
20260502023045 55 0 0.0 0.0 0.00 0.00 0.00 54 1022.6